Regional Weather Roundup
Issued by NWS

Home | Current Version | Previous Version | Text Only | Print | Product List | Glossary Off
Versions: 1 2 3 4 5 6 7 8 9 10 11 12 13 14 15 16 17 18 19 20 21 22 23 24 25 26 27 28 29 30 31 32 33 34 35 36 37 38 39 40 41 42 43 44 45 46 47 48 49 50

000
ASUS43 KMKX 171300
RWRWI

WISCONSIN REGIONAL WEATHER ROUNDUP
NATIONAL WEATHER SERVICE MILWAUKEE/SULLIVAN WI
700 AM CST WED DEC 17 2014

NOTE: "FAIR" INDICATES FEW OR NO CLOUDS BELOW 12,000 FEET WITH NO
SIGNIFICANT WEATHER AND/OR OBSTRUCTIONS TO VISIBILITY.

WIZ001-002-006>008-014>016-023>028-171400-
NORTHWEST WISCONSIN

CITY           SKY/WX    TMP DP  RH WIND       PRES   REMARKS
SUPERIOR ARPT  CLOUDY    14  10  83 W5        30.26S WCI   6
ASHLAND        LGT SNOW  16  13  88 W7        30.22R FOG     WCI   6
HAYWARD        LGT SNOW  13   8  81 CALM      30.22R
SIREN          PTCLDY    11   8  85 NW6       30.26S WCI   2
CUMBERLAND     FLURRIES  16  10  79 NW9       30.22R WCI   4
RICE LAKE      FLURRIES  17  12  80 NW8       30.25R WCI   6
CHETEK         FLURRIES  17  12  80 W3        30.23R
LADYSMITH      LGT SNOW  17  13  82 NW9       30.22R WCI   6
EAU CLAIRE     NOT AVBL
MENOMONIE      CLOUDY    16  12  83 W8        30.26R WCI   6
NEW RICHMOND   LGT SNOW  11  10  93 W7        30.27R WCI   1
OSCEOLA        FLURRIES  12  10  94 W6        30.31R WCI   2
$$

WIZ003>005-009-010-017-018-171400-
NORTH CENTRAL WISCONSIN

CITY           SKY/WX    TMP DP  RH WIND       PRES   REMARKS
MANITOWISH WTR LGT SNOW  15  12  89 W8        30.11R WCI   4
ARBOR VITAE    FLURRIES  17  13  86 NW6       30.11R WCI   8
WOODRUFF       FLURRIES  17  13  86 NW6       30.11R WCI   8
RHINELANDER    CLOUDY    15  10  80 W9        30.11R WCI   3
EAGLE RIVER    LGT SNOW  17  14  89 W10G17    30.09R WCI   4
LAND O LAKES   LGT SNOW  18  15  90 W3        30.08S
PHILLIPS       LGT SNOW  15  11  85 W5        30.15R WCI   7
TOMAHAWK       PTCLDY    13   9  86 CALM      30.14R
MEDFORD        FLURRIES  17  11  80 NW9       30.15S WCI   5
MERRILL        MOCLDY    16  10  78 N7        30.15R WCI   6
$$

WIZ029-030-035-036-043>047-171400-
CENTRAL WISCONSIN

CITY           SKY/WX    TMP DP  RH WIND       PRES   REMARKS
WAUSAU         CLOUDY    18  11  74 NW9       30.15R WCI   7
MOSINEE        NOT AVBL
MARSHFIELD     FLURRIES  20  15  81 NW14      30.17R WCI   7
STEVENS POINT  CLOUDY    19  12  74 W7        30.18R WCI  10
WAUPACA        CLOUDY    25  17  70 NW13      30.18R WCI  14
WAUTOMA        NOT AVBL
WISC RAPIDS    CLOUDY    21  13  71 W10       30.20R WCI  10
CAMP DOUGLAS   NOT AVBL
$$

WIZ011>013-019>022-031-037>040-048>050-171400-
NORTHEAST WISCONSIN

CITY           SKY/WX    TMP DP  RH WIND       PRES   REMARKS
ANTIGO         FLURRIES  17  13  84 W13       30.11R WCI   3
SHAWANO        CLOUDY    24  16  70 NW6       30.15R WCI  17
OCONTO         MOCLDY    23  17  76 W9G16     30.12R WCI  13
STURGEON BAY   MOCLDY    25  16  68 W13       30.11R WCI  13
GREEN BAY      CLOUDY    24  16  71 W13       30.15R WCI  12
MANITOWOC      NOT AVBL
APPLETON       CLOUDY    23  16  74 NW12      30.16R WCI  12
CLINTONVILLE   CLOUDY    23  14  68 W12       30.16R WCI  12
OSHKOSH        CLOUDY    24  16  71 W14       30.17R WCI  12
$$

WIZ032>034-041-042-053>061-171400-
SOUTHWEST WISCONSIN

CITY           SKY/WX    TMP DP  RH WIND       PRES   REMARKS
LA CROSSE      CLOUDY    22  14  71 W13       30.26S WCI  10
SPARTA         CLOUDY    21  14  76 W8        30.25R WCI  11
VIROQUA        CLOUDY    20  17  88 W10       30.21S WCI   8
BOSCOBEL       CLOUDY    23  14  68 NW7       30.27R WCI  15
PRAIRIE DU CHI CLOUDY    21  14  74 W14       30.28R WCI   8
PLATTEVILLE    CLOUDY    22  17  82 W10       30.25R WCI  11
$$

WIZ056-057-062-063-064-067-068-171400-
SOUTH CENTRAL WISCONSIN

CITY           SKY/WX    TMP DP  RH WIND       PRES   REMARKS
REEDSBURG      CLOUDY    22  15  77 NW6       30.21S WCI  14
BARABOO/DELLS  CLOUDY    22  16  77 W8        30.20S WCI  12
LONE ROCK      NOT AVBL
MINERAL POINT  CLOUDY    23  18  80 W9        30.22R WCI  13
MADISON        CLOUDY    23  15  71 NW10      30.21R WCI  12
MIDDLETON      CLOUDY    25  18  74 W10       30.21R WCI  15
WATERTOWN      CLOUDY    24  18  78 W9        30.18S WCI  14
MONROE         CLOUDY    23  19  86 W16       30.20S WCI  10
JANESVILLE     CLOUDY    27  18  69 W8        30.21R WCI  18
$$

WIZ051-052-058>065-066-070>072-171400-
SOUTHEAST WISCONSIN

CITY           SKY/WX    TMP DP  RH WIND       PRES   REMARKS
MILWAUKEE      CLOUDY    26  16  65 W10       30.18R WCI  16
WAUKESHA       CLOUDY    23  18  80 NW12G25   30.18  WCI  12
MILWAUKEE/TIMM CLOUDY    25  18  74 W14       30.18R WCI  13
RACINE         CLOUDY    27  16  63 NW9       30.20R WCI  18
BURLINGTON     CLOUDY    24  17  74 W10       30.19R WCI  13
KENOSHA        CLOUDY    26  17  68 W7        30.19R WCI  18
FOND DU LAC    CLOUDY    24  16  71 NW13      30.17R WCI  12
SHEBOYGAN      CLOUDY    25  17  72 NW9       30.15R WCI  15
WEST BEND      CLOUDY    25  18  74 W15G24    30.15S WCI  12
JUNEAU         CLOUDY    23  17  79 W12G17    30.19R WCI  11
$$

LSZ147-162-171400-
LAKE SUPERIOR

STATION/POSITION TIME  TEMP    WIND        PRES    WAVE
                       AIR SEA DIR/SP/G            HT/PER
                 (UTC) (F)     (DEG/KT/KT) (MB)    (FT/S)
DEVILS ISLAND    1200   20     340/ 14/ 17 1024.0R
PORT WING        1200   19     340/ 12/ 18 1023.7R
SAXON HARBOR     1200   20     270/  6/ 10 1022.4R
$$

LMZ867-665-643>646-171400-
LAKE MICHIGAN

STATION/POSITION TIME  TEMP    WIND        PRES    WAVE
                       AIR SEA DIR/SP/G            HT/PER
                 (UTC) (F)     (DEG/KT/KT) (MB)    (FT/S)
CHAMBERS ISLAND  1200   25     270/  7/ 15 1018.6R
NORTHPORT PIER   1200   26     290/ 12/ 22 1017.6R
SISTER BAY       1113          320/ 24/ 27   N/A
ALGOMA LAKESHORE 1129          320/ 11/ 18   N/A
KEWAUNEE LAKESHO 1200   24     290/ 10/ 14 1018.6R
SHEBOYGAN LAKESH 1200   26 36  300/ 11/ 13 1021.7R
PORT WASHINGTON  1200   27     300/  8/ 14 1022.0
MILWAUKEE LAKESH 1200   27     290/ 12/ 15   N/A
KENOSHA   LAKESH 1200   26     290/  9/ 17 1022.4R
$$

TC  - TEMPERATURE IN CELSIUS
VSB - VISIBILITY IN STATUTE MILES
WCI - WIND CHILL INDEX
HX  - HEAT INDEX



USA.gov is the U.S. government's official web portal to all federal, state and local government web resources and services.